STARLINK-32843, 62814

Orbit data source: Space-Track

STARLINK-32843, 62814 is a payload satellite owned by SpaceX/Seattle (US) in LEO that was launched on Fri, 24 Jan 2025 UTC via an FALCON 9 launch vehicle from the Air Force Western Test Range (AFWTR). Payload-class satellites include a variety of spacecraft equipped with specific instruments for various scientific and technological missions. These include communications satellites like Starlink; space stations such as the ISS; scientific satellites like the Hubble; Earth observation satellites from companies like Planet Labs, Umbra, and HawkEye 360; GPS; miniature CubeSats for education and research; and military/defense satellites.

Loading next visibility...
Identifier
62814, 2025-018J
Orbit
LEO
Last TLE update
12 hours ago
Origin
Manufacturer
SpaceX/Seattle
Mission
Operational Commercial Communications
Bus & Motor
STARLINK V2M, Unknown motor
Mass
730 kg wet, ~700 kg dry
Launch date (UTC)
2025-01-24 (5 months ago)
Launch vehicle
FALCON 9
Launch site
Air Force Western Test Range (AFWTR)
Object type
Payload
Rocket body
Debris
Shape & HBR
Box + 2 Pan, 29 m
Radar Cross Section
33.884 m², Large (>1 m²)

Expand to show TLE details & history

TLE from 12 hours ago
0 STARLINK-32843
1 62814U 25018J   25181.88036602  .00013135  00000-0  45483-3 0  9997
2 62814  53.1592  39.3459 0001186  88.8178 271.2959 15.30200039 25529
Epoch: 2025-06-30T21:07Z
TLE epoch observation values (Epoch: 2025-06-30T21:07:43.624Z)
Latitude
0.00003°
Longitude
163.23033°
Altitude
476.096 km
Speed
7.629 km/s
True Right ascension
02h 37m 23s
True Declination
0° 00' 00"
Sunlit
Object was in daylight at epoch
Visualization orbit readout
Latitude
22.49367°
Longitude
-36.99163°
Altitude
475.483 km
Speed
7.632 km/s
Apparent Right ascension
11h 11m 50s
Apparent Declination
-9° 10' 39"
Sunlit
Object is in daylight
Visualization observer readout
Local Sidereal Time
20:23:49
Azimuth
297.803° NW
Elevation
-41.68°
Doppler factor
1
Orbital elements
Apogee altitude
476.284 km
Perigee altitude
474.659 km
Semi-major axis
6,853.609 km
Eccentricity
0.00012
Inclination
53.1592°
RAAN
39.3459°
Arg. of periapsis
88.8178°
True anomaly
Unknown
Mean anomaly
271.2959°
Eccentric anomaly
Unknown
Mean motion
3.82529 °/min
Orbital period
94.11 mins
BSTAR
0.00045483
Loading maneuver chart data...
Loading SW <> Apogee altitude chart data...
Loading historical data...
Loading historical data...
Loading historical data...
Loading historical data...
Loading historical data...
Loading historical data...
Loading historical data...

STARLINK-32843 Visibility forecast

Observer location: undefined°, undefined°

Span
Click to sort rows by Start time (UTC) header in descending order
Start Az.
Max El. time (UTC)
Max El. Az.
Max El.
End time (UTC)
End Az.
4 mins2025-07-01 16:05:38.699Z168.868° S2025-07-01 16:07:38.699Z131.836° SE17.927°2025-07-01 16:09:38.699Z92.301° ESE
5 mins2025-07-01 17:43:38.699Z260.66° W2025-07-01 17:45:38.699Z338.414° N36.981°2025-07-01 17:48:38.699Z39.727° NE
4 mins2025-07-01 22:40:38.699Z349.122° N2025-07-01 22:42:38.699Z35.474° NE20.897°2025-07-01 22:44:38.699Z73.691° E
5 mins2025-07-02 00:18:38.699Z293.176° NW2025-07-02 00:20:38.699Z205.232° SW39.877°2025-07-02 00:23:38.699Z145.639° SSE
|